Home   Weather   Salt Lake City   Past weeks
Flag for USA

Past Weather in Salt Lake City, Utah, USA — Yesterday and Last 2 Weeks

Now
49 °F

Partly sunny.


Feels Like: 46 °F
Forecast: 59 / 43 °F
Wind: 7 mph from Southeast

Location: Salt Lake City International Airport

Current Time: Oct 22, 2019 at 8:59:57 am

Latest Report: Oct 22, 2019 at 7:54 am


Visibility: 10 mi

Pressure: 30.29 "Hg (25.85 "Hg at 1312m altitude)

Humidity: 50%

Dew Point: 31 °F

Location of Salt Lake CityLocation

Past Weather in Salt Lake City — Graph

°F

Salt Lake City Temperature Yesterday

Maximum temperature yesterday: 55 °F (at 3:54 pm)
Minimum temperature yesterday: 43 °F (at 12:54 am)
Average temperature yesterday: 48 °F

High & Low Weather Summary for the Past Weeks

 TemperatureHumidityPressure
High77 °F (Oct 16, 2:54 pm)97% (Oct 19, 9:54 pm)30.49 "Hg (Oct 19, 9:54 pm)
Low29 °F (Oct 11, 3:54 am)9% (Oct 16, 2:54 pm)29.45 "Hg (Oct 17, 4:54 pm)
Average49 °F43%30.02 "Hg
* Reported Oct 7 7:54 am — Oct 22 7:54 am, Salt Lake City. Weather by CustomWeather, © 2019

Note: Actual official high and low records may vary slightly from our data, if they occured in-between our weather recording intervals... More about our weather records

Advertising

Salt Lake City Weather History for the Previous 24 Hours

Scroll right to see more
 ConditionsComfort  
Time TempWeatherWind HumidityBarometerVisibility
7:54 am
Tue, Oct 22
49 °FPartly sunny.7 mph50%30.29 "Hg10 mi
6:54 am48 °FPassing clouds.5 mph54%30.29 "Hg10 mi
5:54 am47 °FPassing clouds.7 mph54%30.29 "Hg10 mi
4:54 am47 °FOvercast.5 mph56%30.29 "Hg10 mi
3:54 am46 °FPassing clouds.3 mph56%30.29 "Hg10 mi
2:54 am44 °FPassing clouds.9 mph58%30.31 "Hg10 mi
1:54 am44 °FPassing clouds.8 mph58%30.31 "Hg10 mi
12:54 am45 °FPassing clouds.5 mph60%30.31 "Hg10 mi
11:54 pm
Mon, Oct 21
46 °FPassing clouds.6 mph58%30.30 "Hg10 mi
10:54 pm47 °FPassing clouds.3 mph54%30.29 "Hg10 mi
9:54 pm48 °FPassing clouds.3 mph52%30.29 "Hg10 mi
8:54 pm48 °FPassing clouds.5 mph52%30.28 "Hg10 mi
7:54 pm50 °FPassing clouds.3 mph46%30.25 "Hg10 mi
6:54 pm51 °FPassing clouds.No wind42%30.24 "Hg10 mi
5:54 pm52 °FPartly sunny.9 mph41%30.23 "Hg10 mi
4:54 pm55 °FScattered clouds.10 mph35%30.22 "Hg10 mi
3:54 pm55 °FScattered clouds.13 mph37%30.19 "Hg10 mi
2:54 pm54 °FBroken clouds.14 mph38%30.19 "Hg10 mi
1:54 pm54 °FBroken clouds.17 mph40%30.20 "Hg10 mi
12:54 pm52 °FBroken clouds.15 mph43%30.22 "Hg10 mi
11:54 am52 °FBroken clouds.20 mph45%30.19 "Hg10 mi
10:54 am52 °FPartly sunny.7 mph45%30.19 "Hg10 mi
9:54 am48 °FPartly sunny.No wind50%30.18 "Hg10 mi
8:54 am45 °FPartly sunny.3 mph56%30.16 "Hg10 mi
Weather by CustomWeather, © 2019

See weather overview